Chrisman XC Sectional

October 25, 2025


Results by Austin Birch for ChampionChip247

Overall Finish List - Girls

Varsity Girls

Qualifying Teams: 7 Individuals: 5

O'All Place Score Bib No Name Team Time Pace Grade Qualifier
1 1 1717 Kate Foltz Tuscola 17:12.9 5:44/M TM
2 2 1694 Mackenzie Pound Tolono (Unity) 18:13.8 6:05/M TM
3 3 1666 Grace Bressner St Joseph (S.J - Ogden) 18:25.9 6:09/M TM
4 4 1617 Callie Richardson Fithian (Oakwood) 18:52.5 6:18/M TM
5 (< 5) 1612 Ellie Emberson Fisher 19:06.4 6:22/M IND
6 5 1665 Charlene Barbee St Joseph (S.J - Ogden) 19:17.2 6:26/M TM
7 (< 5) 1594 Leah Phipps Chrisman 19:34.9 6:32/M IND
8 6 1558 Natalie Thomason Bismarck Henning Rossville Alvin 20:02.4 6:41/M IND
9 7 1668 Kyla Franckey St Joseph (S.J - Ogden) 20:04.3 6:41/M TM
10 8 1671 Tessa Walker St Joseph (S.J - Ogden) 20:06.8 6:42/M TM
11 9 1687 Brooklyn Mumm Tolono (Unity) 20:23.1 6:48/M TM
12 (< 5) 1650 Hellie Barrett Paris 20:25.9 6:49/M IND
13 10 1696 Mia Reifsteck Tolono (Unity) 20:26.8 6:49/M TM
14 11 1662 Abigail Bello St Joseph (S.J - Ogden) 20:34.6 6:52/M TM
15 12 1546 Kayla Wernigk Armstrong 20:39.0 6:53/M TM
16 13 1691 Grace Wherley Tolono (Unity) 20:44.9 6:55/M TM
17 (< 5) 1643 Erin McCall Gibson City (GC Melvin Sibley) 20:45.2 6:55/M IND
18 14 1618 Emily Lancaster Fithian (Oakwood) 20:52.3 6:57/M TM
19 15 1688 Carolina Popovics Tolono (Unity) 20:55.9 6:59/M TM
20 (< 5) 1605 Jocelyn Wear Danville (Schlarman) 20:58.1 6:59/M
21 16 1663 Allie Bott St Joseph (S.J - Ogden) 21:11.5 7:04/M TM
22 17 1670 Taylor Vaughn St Joseph (S.J - Ogden) 21:19.3 7:06/M TM
23 18 1579 Alex Anderson Champaign (St Thomas More) 21:26.3 7:09/M TM
24 19 1622 Taylor Wells Fithian (Oakwood) 21:26.8 7:09/M TM
25 20 1616 Bracie Hird Fithian (Oakwood) 21:29.6 7:10/M TM
26 21 1733 Clara Knutson Urbana (University) 21:30.5 7:10/M TM
27 22 1734 Ella Ylagan Urbana (University) 21:31.0 7:10/M TM
28 23 1735 Janny Knutson Urbana (University) 21:31.5 7:11/M TM
29 24 1542 Addyson Tholl Armstrong 21:34.9 7:12/M TM
30 25 1732 Cadence Scheunemann Urbana (University) 21:36.0 7:12/M TM
31 26 1739 Sofia MacDonald Urbana (University) 21:40.9 7:14/M TM
32 (< 5) 1567 Kiara Jones Broadlands (Heritage) 21:42.8 7:14/M
33 27 1689 Galina Fairbanks Tolono (Unity) 21:46.9 7:16/M TM
34 28 1738 Shriya Nagaraj Urbana (University) 21:55.5 7:19/M TM
35 29 1584 Rina Tanigaki Champaign (St Thomas More) 22:01.0 7:20/M TM
36 30 1692 Kelsey Adcock Tolono (Unity) 22:07.3 7:22/M TM
37 31 1580 Ava Stark Champaign (St Thomas More) 22:19.5 7:27/M TM
38 32 1621 Taylor Remole Fithian (Oakwood) 22:28.0 7:29/M TM
39 33 1615 Amber Betzwiser Fithian (Oakwood) 22:30.0 7:30/M TM
40 34 1559 Quincey Lebeane Bismarck Henning Rossville Alvin 22:34.9 7:32/M
41 35 1544 Aubrey Self Armstrong 22:55.7 7:39/M TM
42 36 1719 Sami Walker Tuscola 23:14.1 7:45/M TM
43 37 1623 Zoe Moudy Fithian (Oakwood) 23:23.5 7:48/M TM
44 (< 5) 1751 Alice Mitsdarfer Villa Grove 23:51.8 7:57/M
45 38 1547 Ryah Peters Armstrong 24:01.5 8:01/M TM
46 39 1736 Julia Smith Urbana (University) 24:04.5 8:02/M TM
47 40 1713 Amelia Manus Tuscola 24:15.9 8:05/M TM
48 41 1581 Claire Kluesner Champaign (St Thomas More) 24:21.8 8:07/M TM
49 42 1714 Bella Duecker Tuscola 24:25.5 8:09/M TM
50 43 1556 Kensley Crawley Bismarck Henning Rossville Alvin 24:31.7 8:11/M
51 (< 5) 1613 Lila Stauffer Fisher 24:32.5 8:11/M
52 (< 5) 1607 Yesenia Guerrero Danville (Schlarman) 24:35.6 8:12/M
53 (< 5) 1651 Lily Wyrick Paris 24:49.0 8:16/M
54 44 1716 Hanna Carswell Tuscola 25:00.3 8:20/M TM
55 45 1715 Celeste Rebollo Tuscola 25:24.0 8:28/M TM
56 46 1582 Elizabeth Withers-Sickles Champaign (St Thomas More) 25:31.8 8:31/M TM
57 (< 5) 1648 Alison Wyrick Paris 25:33.5 8:31/M
58 47 1560 Reesey Lebeane Bismarck Henning Rossville Alvin 26:10.1 8:43/M
59 48 1543 Aleyah Carley Armstrong 26:39.0 8:53/M TM
60 (< 5) 1604 Bailey Robinson Danville (Schlarman) 26:45.0 8:55/M
61 49 1545 Cala Reifsteck Armstrong 26:57.4 8:59/M TM
62 50 1557 Maci O'Connell Bismarck Henning Rossville Alvin 27:05.0 9:02/M
63 (< 5) 1578 Ivey Webb Champaign (Judah Christian) 28:54.0 9:38/M
64 (< 5) 1752 Gabriella Esteban-Rafael Villa Grove 29:10.5 9:44/M
65 (< 5) 1761 Tabitha Pridemore Westville 31:11.3 10:24/M